Zurück zum Katalog

THOR AGENA B R/B

AktivPO
NORAD 741·ROCKET BODY·🇺🇸 United States

Gestartet Jan 25, 1964 von Vandenberg Space Force Base

Loading…

Nächste Überflüge (nächste 24 Stunden)

TLE

AktuellSource: Space-Track

Epoche: Sep 14, 2026, 01:39 UTC

1 00741U 64004B   26257.06932344  .00000066  00000-0  11897-3 0  9990
2 00741  81.4862  90.1212 0172328  31.2215 134.5828 13.23830227 24834

Verfolge THOR AGENA B R/B in Echtzeit mit AllMySat

Download on the App Store